Walhalla, ND

7:57 AM CDT on August 23, 2017 (GMT -0500)
Walhalla

Weather History for K96D - March, 2013

Change the Weather History Date:

Wednesday, March 20, 2013

  Actual Average (KGAF) Record (KGAF)
Temperature  
Mean Temperature 7 °F -  
Max Temperature 14 °F 35 °F 58 °F (1991)
Min Temperature 0 °F 18 °F -15 °F (1955)
Degree Days  
Heating Degree Days 58    
Moisture  
Dew Point -3 °F    
Average Humidity 67    
Maximum Humidity 78    
Minimum Humidity 53    
Precipitation  
Precipitation 0.00 in - - ()
Sea Level Pressure  
Sea Level Pressure 30.29 in    
Wind  
Wind Speed 10 mph (NW)    
Max Wind Speed 15 mph    
Max Gust Speed 18 mph    
Visibility 10 miles    
Events      
Averages and records for this station are not official NWS values.
T = Trace of Precipitation, MM = Missing Value Source: NWS Daily Summary

Daily Weather History Graph

Daily Weather History Graph

Search for Another Location

Airport or City:

Trip Planner

Search our weather history database for the weather conditions in past years. The results will help you decide how hot, cold, wet, or windy it might be!

Date:

Astronomy

Mar. 20, 2013 Rise Set
Actual Time 7:33 AM CDT 7:44 PM CDT
Civil Twilight 7:02 AM CDT 8:16 PM CDT
Nautical Twilight 6:25 AM CDT 8:53 PM CDT
Astronomical Twilight 5:46 AM CDT 9:32 PM CDT
Moon 12:54 PM CDT (3/20) 3:42 AM CDT (3/20)
Length of Visible Light 13h 14m
Length of Day
12h 11m
First Quarter, 59% of the Moon is Illuminated
Mar 20
First Quarter
Mar 27
Full
Apr 2
Last Quarter
Apr 10
New
Apr 18
First Quarter

Hourly Weather History & Observations

Time (CDT) Temp. Windchill Dew Point Humidity Pressure Visibility Wind Dir Wind Speed Gust Speed Precip Events Conditions
12:15 AM 5.0 °F -10.0 °F -2.2 °F 72% 30.32 in 10.0 mi WNW 10.4 mph - N/A   Mostly Cloudy
12:35 AM 5.0 °F -9.1 °F -2.2 °F 72% 30.32 in 10.0 mi WNW 9.2 mph - N/A   Mostly Cloudy
12:55 AM 5.0 °F -10.0 °F -2.2 °F 72% 30.32 in 10.0 mi WNW 10.4 mph - N/A   Mostly Cloudy
1:15 AM 3.2 °F -12.2 °F -2.2 °F 78% 30.31 in 10.0 mi WNW 10.4 mph - N/A   Scattered Clouds
1:35 AM 3.2 °F -12.2 °F -2.2 °F 78% 30.31 in 10.0 mi WNW 10.4 mph - N/A   Mostly Cloudy
1:55 AM 3.2 °F -12.2 °F -4.0 °F 72% 30.31 in 10.0 mi NW 10.4 mph 16.1 mph N/A   Mostly Cloudy
2:15 AM 5.0 °F -10.0 °F -2.2 °F 72% 30.32 in 10.0 mi WNW 10.4 mph - N/A   Mostly Cloudy
2:35 AM 5.0 °F -9.1 °F -2.2 °F 72% 30.32 in 10.0 mi WNW 9.2 mph 17.3 mph N/A   Mostly Cloudy
2:55 AM 3.2 °F -11.3 °F -4.0 °F 72% 30.32 in 10.0 mi WNW 9.2 mph - N/A   Overcast
3:15 AM 3.2 °F -11.3 °F -4.0 °F 72% 30.32 in 10.0 mi WNW 9.2 mph - N/A   Mostly Cloudy
3:35 AM 3.2 °F -11.3 °F -4.0 °F 72% 30.32 in 10.0 mi WNW 9.2 mph - N/A   Mostly Cloudy
3:55 AM 1.4 °F -12.5 °F -4.0 °F 78% 30.32 in 10.0 mi WNW 8.1 mph - N/A   Mostly Cloudy
4:15 AM 3.2 °F -11.3 °F -4.0 °F 72% 30.32 in 10.0 mi WNW 9.2 mph - N/A   Mostly Cloudy
4:35 AM 1.4 °F -12.5 °F -4.0 °F 78% 30.32 in 10.0 mi WNW 8.1 mph - N/A   Mostly Cloudy
4:55 AM 1.4 °F -9.9 °F -4.0 °F 78% 30.32 in 10.0 mi WNW 5.8 mph - N/A   Scattered Clouds
5:15 AM -0.4 °F -14.7 °F -5.8 °F 78% 30.33 in 10.0 mi WNW 8.1 mph - N/A   Mostly Cloudy
5:35 AM 1.4 °F -12.5 °F -5.8 °F 72% 30.33 in 10.0 mi WNW 8.1 mph - N/A   Scattered Clouds
5:55 AM 1.4 °F -13.5 °F -5.8 °F 72% 30.33 in 10.0 mi WNW 9.2 mph - N/A   Scattered Clouds
6:15 AM 1.4 °F -14.5 °F -5.8 °F 72% 30.33 in 10.0 mi WNW 10.4 mph 16.1 mph N/A   Scattered Clouds
6:35 AM -0.4 °F -14.7 °F -5.8 °F 78% 30.33 in 10.0 mi WNW 8.1 mph - N/A   Mostly Cloudy
6:55 AM -0.4 °F -15.7 °F -7.6 °F 72% 30.33 in 10.0 mi NW 9.2 mph - N/A   Scattered Clouds
7:15 AM -0.4 °F -14.7 °F -7.6 °F 72% 30.34 in 10.0 mi NW 8.1 mph - N/A   Clear
7:35 AM -0.4 °F -15.7 °F -7.6 °F 72% 30.34 in 10.0 mi NW 9.2 mph - N/A   Clear
7:55 AM -0.4 °F -15.7 °F -7.6 °F 72% 30.34 in 10.0 mi NW 9.2 mph - N/A   Clear
8:15 AM 1.4 °F -14.5 °F -5.8 °F 72% 30.34 in 10.0 mi WNW 10.4 mph - N/A   Clear
8:35 AM 1.4 °F -13.5 °F -5.8 °F 72% 30.34 in 10.0 mi WNW 9.2 mph 16.1 mph N/A   Clear
8:55 AM 1.4 °F -14.5 °F -5.8 °F 72% 30.34 in 10.0 mi NW 10.4 mph - N/A   Clear
9:15 AM 3.2 °F -11.3 °F -4.0 °F 72% 30.34 in 10.0 mi NW 9.2 mph - N/A   Clear
9:35 AM 3.2 °F -10.3 °F -4.0 °F 72% 30.33 in 10.0 mi NW 8.1 mph - N/A   Clear
9:55 AM 5.0 °F -10.0 °F -4.0 °F 66% 30.33 in 10.0 mi NW 10.4 mph - N/A   Clear
10:15 AM 5.0 °F -9.1 °F -2.2 °F 72% 30.33 in 10.0 mi NW 9.2 mph - N/A   Clear
10:35 AM 6.8 °F -8.6 °F -2.2 °F 67% 30.34 in 10.0 mi NNW 11.5 mph - N/A   Clear
10:55 AM 8.6 °F -7.0 °F -2.2 °F 62% 30.33 in 10.0 mi NNW 12.7 mph 18.4 mph N/A   Clear
11:15 AM 8.6 °F -5.5 °F -2.2 °F 62% 30.33 in 10.0 mi NNW 10.4 mph - N/A   Clear
11:35 AM 8.6 °F -6.3 °F -2.2 °F 62% 30.33 in 10.0 mi NNW 11.5 mph - N/A   Clear
11:55 AM 10.4 °F -4.1 °F -0.4 °F 62% 30.33 in 10.0 mi NNW 11.5 mph - N/A   Clear
12:15 PM 10.4 °F -4.1 °F -0.4 °F 62% 30.32 in 10.0 mi NNW 11.5 mph - N/A   Clear
12:35 PM 10.4 °F -4.1 °F -0.4 °F 62% 30.31 in 10.0 mi NNW 11.5 mph - N/A   Clear
12:55 PM 10.4 °F -4.8 °F -0.4 °F 62% 30.31 in 10.0 mi NNW 12.7 mph - N/A   Clear
1:15 PM 10.4 °F -4.8 °F -2.2 °F 57% 30.30 in 10.0 mi NNW 12.7 mph 17.3 mph N/A   Clear
1:35 PM 12.2 °F -2.5 °F -0.4 °F 57% 30.29 in 10.0 mi NNW 12.7 mph - N/A   Clear
1:55 PM 12.2 °F -2.5 °F -0.4 °F 57% 30.29 in 10.0 mi NNW 12.7 mph - N/A   Clear
2:15 PM 14.0 °F 0.5 °F -0.4 °F 53% 30.28 in 10.0 mi NNW 11.5 mph - N/A   Clear
2:35 PM 14.0 °F 1.2 °F -0.4 °F 53% 30.27 in 10.0 mi NNW 10.4 mph - N/A   Clear
2:55 PM 14.0 °F 1.2 °F -0.4 °F 53% 30.27 in 10.0 mi NNW 10.4 mph - N/A   Clear
3:15 PM 14.0 °F -1.4 °F -0.4 °F 53% 30.27 in 10.0 mi NNW 15.0 mph - N/A   Clear
3:35 PM 14.0 °F 0.5 °F -0.4 °F 53% 30.26 in 10.0 mi NNW 11.5 mph - N/A   Clear
3:55 PM 14.0 °F 0.5 °F -0.4 °F 53% 30.26 in 10.0 mi NNW 11.5 mph - N/A   Clear
4:15 PM 14.0 °F 1.2 °F -0.4 °F 53% 30.25 in 10.0 mi NNW 10.4 mph - N/A   Clear
4:35 PM 14.0 °F 1.2 °F -0.4 °F 53% 30.24 in 10.0 mi NNW 10.4 mph - N/A   Clear
4:55 PM 14.0 °F -0.2 °F -0.4 °F 53% 30.25 in 10.0 mi North 12.7 mph - N/A   Clear
5:15 PM 14.0 °F 1.2 °F -0.4 °F 53% 30.24 in 10.0 mi NNW 10.4 mph - N/A   Clear
5:35 PM 14.0 °F 0.5 °F -0.4 °F 53% 30.24 in 10.0 mi NNW 11.5 mph - N/A   Clear
5:55 PM 14.0 °F 1.2 °F -0.4 °F 53% 30.24 in 10.0 mi NNW 10.4 mph - N/A   Clear
6:15 PM 14.0 °F 0.5 °F -0.4 °F 53% 30.23 in 10.0 mi NNW 11.5 mph - N/A   Clear
6:35 PM 12.2 °F -0.2 °F -0.4 °F 57% 30.23 in 10.0 mi NNW 9.2 mph - N/A   Clear
6:55 PM 10.4 °F -1.5 °F -0.4 °F 62% 30.23 in 10.0 mi NW 8.1 mph - N/A   Clear
7:15 PM 10.4 °F -2.4 °F -0.4 °F 62% 30.23 in 10.0 mi NNW 9.2 mph - N/A   Clear
7:35 PM 6.8 °F -4.8 °F -2.2 °F 67% 30.22 in 10.0 mi NW 6.9 mph - N/A   Clear
7:55 PM 6.8 °F -3.5 °F -2.2 °F 67% 30.22 in 10.0 mi NW 5.8 mph - N/A   Clear
8:15 PM 5.0 °F -5.6 °F -4.0 °F 66% 30.22 in 10.0 mi NW 5.8 mph - N/A   Clear
8:35 PM 1.4 °F -8.3 °F -4.0 °F 78% 30.22 in 10.0 mi NW 4.6 mph - N/A   Partly Cloudy
8:55 PM 1.4 °F -6.2 °F -5.8 °F 72% 30.22 in - WNW 3.5 mph - N/A   Partly Cloudy
9:15 PM -0.4 °F -12.0 °F -5.8 °F 78% 30.22 in 10.0 mi WNW 5.8 mph - N/A   Clear
9:35 PM 1.4 °F -8.3 °F -7.6 °F 66% 30.22 in 10.0 mi WNW 4.6 mph - N/A   Clear
9:55 PM 1.4 °F -8.3 °F -7.6 °F 66% 30.22 in 10.0 mi NW 4.6 mph - N/A   Clear
10:15 PM 1.4 °F -8.3 °F -5.8 °F 72% 30.21 in 10.0 mi NW 4.6 mph - N/A   Clear
10:35 PM -0.4 °F -10.4 °F -7.6 °F 72% 30.21 in 10.0 mi WNW 4.6 mph - N/A   Clear
10:55 PM -0.4 °F -10.4 °F -7.6 °F 72% 30.20 in 10.0 mi WNW 4.6 mph - N/A   Scattered Clouds
11:15 PM -0.4 °F -12.0 °F -5.8 °F 78% 30.20 in 10.0 mi WNW 5.8 mph - N/A   Scattered Clouds
11:35 PM -0.4 °F -12.0 °F -7.6 °F 72% 30.20 in 10.0 mi NW 5.8 mph - N/A   Partly Cloudy
11:55 PM 1.4 °F -11.3 °F -5.8 °F 72% 30.19 in 10.0 mi NW 6.9 mph - N/A   Partly Cloudy